Miscellaneous Local Product
Issued by NWS Hastings, NE

Home | Current Version | Previous Version | Graphics & Text | Print | Product List | Glossary On
Versions: 1 2 3 4 5 6 7 8 9 10 11 12 13 14 15 16 17 18 19 20 21 22 23 24 25 26 27 28 29 30 31 32 33 34 35 36 37 38 39 40 41 42 43 44 45 46 47 48 49 50
000
AXUS43 KGID 100902
MISGRI

GID CWA HOURLY WEATHER ROUNDUP
NATIONAL WEATHER SERVICE HASTINGS NE
400 AM CDT THU JUL 10 2014

NOTE: "FAIR" INDICATES FEW OR NO CLOUDS BELOW 12,000 FEET WITH NO
SIGNIFICANT WEATHER AND/OR OBSTRUCTIONS TO VISIBILITY.

...SOUTH CENTRAL NEBRASKA...

CITY           SKY/WX    TMP DP  RH WIND       PRES   REMARKS
GRAND ISLAND   CLOUDY    65  62  90 S13       29.97F
HASTINGS       CLOUDY    67  60  78 S9        29.99R
KEARNEY        CLOUDY    66  61  82 S25G33    29.93F
ORD            MOCLDY    62  60  93 SE8       29.96R
YORK           CLOUDY    63  63 100 SE3       30.00R
AURORA         CLOUDY    65  64  98 SE5       29.98S
LEXINGTON      TSTM      68  63  83 S33G40    29.95R
HOLDREGE       CLOUDY    65  60  86 S25G33    29.96F THUNDER
HEBRON         CLOUDY    68  64  85 S7        29.97S

...NEBRASKA PANHANDLE...

CITY           SKY/WX    TMP DP  RH WIND       PRES   REMARKS
CHADRON        CLEAR     60  58  92 N3        29.91F
ALLIANCE       CLEAR     60  59  96 SE10      29.92F
SCOTTSBLUFF    CLEAR     62  60  93 SE5       29.92F
SIDNEY         CLEAR     57  51  80 SW7       29.95F

...WESTERN AND NORTH CENTRAL NEBRASKA...

CITY           SKY/WX    TMP DP  RH WIND       PRES   REMARKS
VALENTINE      CLOUDY    60  60 100 N5        29.94F
AINSWORTH      MOCLDY    62  61  96 SE6       29.96S
ONEILL         CLEAR     63  58  85 SE6       29.98R
BROKEN BOW     CLOUDY    63  62  97 CALM      29.95F
IMPERIAL       CLOUDY    64  61  90 SE24G32   29.97S
NORTH PLATTE   PTCLDY    65  59  81 E15G23    30.02R
MCCOOK         CLOUDY    65  62  90 E17G25    29.98F

...EASTERN NEBRASKA...

CITY           SKY/WX    TMP DP  RH WIND       PRES   REMARKS
NORFOLK        MOCLDY    63  60  90 CALM      29.98S
SO SIOUX CITY  CLEAR     62  60  93 E6        29.98F
TEKAMAH        CLEAR     62  59  90 SE3       29.99F
ALBION         CLEAR     60  59  97 SE3       29.99R FOG
OMAHA EPPLEY   PTCLDY    67  61  81 SE5       30.00S
OFFUTT AFB     CLEAR     63  63 100 E5        29.99F
MILLARD        CLEAR     66  62  86 CALM      29.99S
LINCOLN        MOCLDY    67  61  81 S3        30.00R
NEBRASKA CITY  MOCLDY    63  63  99 S3        30.00S
BEATRICE       MOCLDY    64  62  93 E5        29.98R
FALLS CITY     CLOUDY    66  62  87 SE6       30.00F

...NORTHERN KANSAS...

CITY           SKY/WX    TMP DP  RH WIND       PRES   REMARKS
GOODLAND       CLEAR     65  61  87 E16       29.97R
HILL CITY      LGT RAIN  65  62  90 SE10G18   29.96F
NORTON         CLOUDY    68  63  83 E17G24    30.00S
PHILLIPSBURG   MOCLDY    68  63  83 N9        30.03R
SMITH CENTER   CLOUDY    66  61  82 SE12      30.01S HAZE
HAYS           CLOUDY    66  63  88 SE18      29.98F
RUSSELL        TSTM      66  65  96 SE18      29.96F FOG
CONCORDIA      MOCLDY    70  62  76 S15       29.99R
SALINA         CLOUDY    71  61  70 S9        30.00F
TOPEKA         CLOUDY    72  64  76 E5        30.00F



USA.gov is the U.S. government's official web portal to all federal, state and local government web resources and services.